Simultaneous Nadir Overpasses (SNOs) Predictions

Prediction of SNOs between GOES-17 and NOAA-19 Satellite Orbit:

Table of predicted SNOs for the next 14.0 days since TLE Epoch: 2/17/2024
Index Date Time (GOES-17) GOES-17 Lat,Lon NOAA-19 Lat,Lon Distance(km) Time Diff (sec)
1 02/17/2024 16:07:50 -0.00,-104.69 0.34,-106.27 179.55 80
2 02/18/2024 15:58:19 -0.00,-104.69 -0.34,-103.30 158.69 80
3 02/19/2024 15:46:07 -0.01,-104.69 -1.03,-100.34 496.93 80
4 02/21/2024 04:18:00 0.00,-104.68 -0.78,-107.98 377.44 80
5 02/22/2024 04:05:48 0.01,-104.67 -0.08,-105.01 39.16 80
6 02/23/2024 03:50:57 0.01,-104.67 0.61,-102.05 299.23 80
7 02/25/2024 16:10:40 -0.01,-104.68 0.47,-106.74 235.24 80
8 02/26/2024 16:01:08 -0.01,-104.68 -0.24,-103.78 103.68 80
9 02/27/2024 15:48:56 -0.01,-104.69 -0.89,-100.80 442.60 80
10 02/29/2024 04:20:49 0.01,-104.69 -0.87,-108.46 430.44 80
11 03/01/2024 04:08:37 0.01,-104.69 -0.16,-105.50 91.82 80
